Lapse_Rate
5.4 5.4 5.6 5.7 5.6 5.4 5.2 4.8 4.4 4.2 4.0 3.8 3.7 3.6 3.5 3.4 3.1 2.8 2.6 2.5 2.3 2.0 1.8 1.7 3.5 4.0 5.0 5.1 4.8 5.3 5.1 5.1 4.9 5.5 6.1 6.4 6.2 6.0 6.0 6.2 6.1 6.0 5.8
5.1 5.1 5.1 5.1 5.2 4.9 4.6 4.1 4.0 4.0 4.0 3.8 3.6 3.6 3.5 3.5 4.1 4.1 3.8 3.9 3.9 3.4 2.8 2.1 2.0 3.4 4.4 4.7 4.8 4.8 4.8 4.8 4.9 5.1 5.8 6.2 5.9 6.1 5.9 5.8 5.9 6.1 5.8
4.7 4.8 4.8 4.9 4.8 4.6 4.2 3.9 4.0 4.0 4.0 3.9 4.0 4.1 5.6 5.8 5.8 5.4 4.7 4.8 4.4 4.1 3.9 3.1 2.5 3.3 3.6 4.1 5.0 4.7 5.0 5.2 4.7 5.1 5.6 6.0 6.0 5.9 5.9 6.0 5.4 5.7 5.7
4.4 4.6 4.5 4.7 4.4 4.2 3.9 4.0 4.0 4.0 4.1 4.4 5.6 6.2 6.0 6.1 6.4 6.2 5.9 5.3 5.1 4.7 4.3 3.7 3.2 3.7 3.3 3.5 3.9 4.8 4.8 4.8 4.7 5.0 5.7 5.6 5.9 5.7 5.7 6.0 5.3 5.9 5.6
4.3 4.3 4.5 4.4 4.1 4.0 3.8 3.8 3.9 3.8 4.4 5.8 6.5 5.8 5.6 6.1 6.1 6.3 6.1 5.7 5.6 4.9 4.4 4.0 3.4 3.5 3.3 3.3 4.8 5.0 4.9 5.6 4.6 4.8 5.7 5.7 5.5 5.4 5.7 5.9 5.2 5.3 5.6
4.2 4.2 4.2 4.0 3.9 3.7 3.7 3.8 3.8 3.8 5.3 6.4 5.9 5.3 5.5 5.8 5.4 5.2 5.4 5.8 5.7 5.1 4.6 4.2 3.6 3.6 3.1 3.4 4.9 5.3 5.5 5.2 4.4 4.8 5.8 5.7 5.2 5.7 5.6 5.8 5.5 5.4 5.3
4.2 4.0 4.0 3.8 3.6 3.6 3.6 3.9 3.7 4.2 5.8 5.8 5.2 5.1 5.3 5.2 4.8 4.7 5.1 5.0 5.5 5.1 4.6 4.3 3.7 3.3 3.0 3.3 5.2 5.4 4.6 4.9 4.9 5.3 5.9 5.5 5.6 6.1 5.9 5.7 5.6 5.6 5.5
3.9 3.7 3.6 3.7 3.6 3.5 3.5 3.8 3.7 4.7 5.6 5.3 5.5 5.2 5.3 4.5 4.7 4.9 5.9 6.0 5.7 5.1 4.3 4.1 3.7 3.4 2.7 4.0 4.4 4.8 4.3 5.4 5.0 5.5 6.2 5.9 6.1 5.8 5.8 6.0 6.0 6.2 5.8
3.5 3.5 3.6 3.6 3.4 3.3 3.5 3.6 3.7 4.8 5.0 5.2 5.6 5.3 4.8 4.6 4.5 5.6 5.7 6.0 5.8 5.2 4.6 4.2 3.4 3.5 3.3 4.1 4.1 4.9 5.1 5.6 5.4 5.9 5.8 6.3 6.2 6.1 5.7 5.6 5.6 5.6 5.6
3.4 3.5 3.4 3.3 3.4 3.3 3.5 3.5 3.8 4.5 4.7 5.4 5.6 4.8 4.9 5.0 5.9 5.2 5.4 6.2 5.7 5.5 5.2 4.5 4.0 4.1 4.9 5.8 5.8 5.6 5.4 5.5 5.8 5.8 5.4 5.5 6.0 6.0 5.8 5.0 5.3 5.7 5.4
3.5 3.3 3.4 3.1 3.1 3.4 3.5 3.3 3.8 4.3 4.5 4.8 5.4 5.0 4.8 5.1 5.0 5.9 6.4 6.0 5.8 5.7 5.6 4.9 5.0 6.3 6.0 5.6 5.3 5.4 5.7 6.0 5.6 5.7 5.5 5.3 5.1 5.4 5.1 5.0 5.0 4.6 4.6
3.7 3.2 3.2 3.1 3.0 3.2 3.4 2.9 3.3 4.2 4.5 4.6 5.2 5.4 5.1 5.1 5.2 5.7 5.3 5.3 5.8 5.3 5.0 5.5 6.1 5.5 5.4 5.3 5.7 5.8 5.6 5.8 5.9 5.2 5.8 5.9 5.9 5.4 5.0 5.0 4.8 4.8 4.8
3.8 3.5 2.8 3.1 3.1 3.1 3.3 2.8 2.8 3.7 4.3 4.5 5.1 5.6 5.5 5.5 5.5 5.7 5.8 5.2 5.5 5.5 5.3 5.6 6.0 5.8 5.5 5.4 5.1 5.3 5.8 5.7 5.1 5.5 5.7 5.6 5.9 5.5 5.3 5.3 4.9 5.0 5.2
3.7 3.7 3.0 3.0 3.2 3.1 3.2 3.2 3.0 3.2 3.5 4.4 4.5 5.0 5.3 5.3 5.5 5.8 6.2 5.7 5.2 5.5 5.1 4.8 5.9 5.5 5.6 5.7 5.1 5.5 5.4 5.5 5.9 5.5 5.3 5.7 5.7 5.5 5.2 5.3 5.0 4.7 5.1
3.7 3.7 3.5 3.0 3.1 3.2 2.9 2.9 3.0 2.9 3.3 4.0 4.3 4.8 4.7 5.1 5.3 5.5 5.6 5.5 5.6 5.5 5.4 5.1 5.0 5.1 5.1 5.2 5.1 5.1 5.1 5.4 5.4 5.7 5.2 5.6 5.4 5.3 5.1 5.1 5.2 4.9 5.1
3.7 3.7 3.5 3.4 3.2 3.3 3.0 2.8 2.8 2.6 2.5 3.1 3.9 3.9 4.3 4.0 4.4 4.7 5.2 5.4 5.7 5.3 5.3 5.5 5.6 5.2 5.0 5.1 5.0 4.9 5.0 5.0 4.9 5.2 5.4 5.4 5.2 4.9 4.6 4.8 4.8 5.0 5.0
3.8 3.7 3.5 3.4 3.4 3.2 3.1 3.1 2.7 2.6 2.1 2.2 2.9 3.6 3.4 3.3 3.8 4.0 4.5 4.7 5.6 5.8 5.7 5.8 5.9 5.4 5.5 5.3 5.2 4.9 5.1 5.0 5.1 5.3 5.2 5.3 5.3 5.1 4.9 4.8 4.9 4.8 5.0
3.9 3.8 3.5 3.4 3.4 3.3 3.1 2.8 2.9 2.8 2.1 1.4 1.4 2.1 2.5 3.8 3.7 3.6 3.7 4.0 4.5 4.9 5.4 5.6 5.6 5.6 5.7 5.4 5.2 5.0 5.1 5.3 5.6 5.5 5.1 5.2 5.2 5.0 5.0 4.6 4.8 4.9 5.1
4.0 3.9 3.6 3.3 3.3 3.4 3.2 3.0 2.8 2.7 2.8 2.3 1.5 1.1 2.1 2.7 3.5 3.7 3.4 3.2 3.7 4.4 4.8 5.0 5.3 5.5 5.4 5.4 5.3 5.4 5.3 5.2 5.1 5.3 5.2 5.0 4.9 4.8 4.9 4.7 4.6 4.7 4.7
4.2 4.1 3.9 3.5 3.3 3.4 3.4 3.1 2.8 2.7 2.7 2.7 2.4 2.2 1.5 1.4 2.2 3.0 3.8 3.7 3.1 3.4 3.9 4.4 4.6 5.1 5.2 5.1 5.3 5.2 5.1 5.3 5.7 5.3 4.7 4.8 4.7 4.8 4.8 4.7 4.7 4.7 4.8
4.4 4.2 3.9 3.6 3.6 3.5 3.4 3.1 2.8 2.7 2.7 2.6 2.7 2.6 2.4 2.1 1.9 1.9 2.5 3.3 3.4 2.9 3.3 3.5 3.9 4.1 4.3 4.4 4.6 4.8 4.7 4.8 4.8 5.1 5.2 4.8 4.5 4.7 5.1 5.1 4.9 5.0 5.1
4.4 4.2 3.8 3.7 3.8 3.7 3.5 3.2 2.9 2.7 2.7 2.7 2.6 2.6 2.5 2.4 2.3 2.3 2.3 2.4 2.8 3.0 2.8 2.8 2.8 3.1 3.6 3.8 4.0 3.9 3.7 3.9 4.2 4.6 4.6 5.2 5.2 5.0 5.1 5.0 5.2 5.2 5.1
4.3 3.9 3.8 3.9 3.9 3.8 3.6 3.4 3.1 2.9 2.7 2.7 2.6 2.5 2.5 2.5 2.4 2.4 2.5 2.4 2.2 2.2 2.3 2.6 2.7 2.6 2.6 2.9 3.2 3.4 3.7 3.7 3.6 3.5 3.4 3.9 4.2 4.5 4.6 4.5 4.9 5.1 5.0
4.1 4.0 4.0 3.9 3.7 3.6 3.5 3.4 3.3 3.1 2.9 2.8 2.7 2.7 2.6 2.5 2.5 2.5 2.4 2.3 2.2 2.2 2.1 2.0 1.9 2.5 2.7 2.6 2.6 2.6 3.0 3.3 2.9 3.0 3.0 3.1 3.4 3.5 3.8 4.0 4.2 4.4 4.5
4.0 4.1 4.0 3.9 3.7 3.4 3.2 3.1 3.0 2.8 2.8 2.7 2.6 2.6 2.6 2.5 2.4 2.3 2.2 2.3 2.3 2.1 2.0 2.0 2.0 1.9 1.8 2.0 2.3 2.6 2.6 2.6 2.6 2.4 2.7 2.9 2.8 2.9 2.9 3.3 3.5 3.7 3.8
4.0 4.0 3.8 3.6 3.5 3.2 3.0 2.8 2.6 2.5 2.4 2.3 2.2 2.2 2.2 2.1 2.1 2.0 1.9 1.9 1.8 1.9 1.9 1.9 1.9 1.9 1.8 1.7 1.6 1.8 2.0 2.0 2.1 2.3 2.1 2.2 2.6 2.6 2.6 2.7 2.8 2.9 2.9
Wind_Speed
3 4 4 5 6 7 8 9 10 11 12 13 14 16 16 16 16 16 18 19 21 21 21 19 22 21 15 14 13 14 17 17 14 10 13 12 19 16 15 25 25 24 25
4 3 5 6 6 7 8 10 10 12 12 13 15 17 17 18 18 19 20 19 21 23 25 22 24 16 22 19 15 20 19 21 13 17 13 11 17 19 17 17 11 22 21
3 3 5 6 6 7 9 10 11 12 13 13 15 16 17 18 20 21 22 22 24 24 24 23 25 24 22 17 17 16 15 17 16 11 12 13 15 15 14 14 14 14 20
3 3 5 6 6 7 8 11 12 12 12 13 15 16 17 17 18 19 21 24 25 24 24 25 25 26 26 22 20 21 18 19 16 13 13 14 14 16 14 15 12 10 10
3 4 6 6 6 7 7 10 11 11 12 13 15 15 15 16 13 15 18 22 25 25 25 27 26 32 35 31 17 18 22 16 18 14 14 13 13 14 16 13 14 11 11
4 5 5 6 6 7 8 10 10 11 12 13 14 15 16 13 27 32 27 19 20 25 26 27 27 36 35 38 35 34 24 22 27 17 16 17 19 17 15 14 13 12 9
4 5 5 5 6 6 8 9 10 11 13 14 14 15 17 17 32 37 40 25 24 23 26 24 23 22 31 27 35 38 33 42 39 25 22 19 19 20 18 18 16 16 11
5 5 5 5 6 6 7 8 9 9 12 12 14 16 16 16 34 42 44 25 21 23 25 27 27 27 28 27 26 25 28 30 29 20 23 23 20 22 23 20 21 19 13
5 5 5 4 6 6 8 9 10 9 11 12 12 15 16 17 34 39 30 10 8 24 22 27 27 27 35 37 24 26 22 27 24 23 20 22 21 30 23 14 14 14 11
5 4 4 4 4 6 7 9 6 8 9 9 13 13 21 18 29 32 23 9 9 3 4 2 38 29 29 28 20 18 24 22 18 14 10 12 16 22 24 20 16 14 11
4 2 3 4 4 5 5 3 7 9 8 9 12 13 14 19 19 33 33 13 12 8 8 7 7 24 28 26 29 22 24 19 21 17 13 12 13 14 13 13 15 15 14
4 3 2 4 4 4 3 6 8 7 8 10 12 12 12 18 28 34 36 33 29 15 12 12 13 30 27 18 4 36 21 20 12 15 14 13 13 13 14 14 14 13 13
3 3 3 3 4 4 4 6 6 7 6 9 10 11 13 14 16 35 36 36 33 14 11 18 26 31 31 24 32 30 21 5 12 12 12 12 13 13 14 14 12 13 10
4 3 4 2 3 4 3 3 4 6 7 9 10 12 12 13 15 15 15 16 27 21 25 20 28 29 35 27 24 20 13 12 10 3 5 3 6 8 10 10 11 10 9
4 3 1 3 3 3 4 3 3 5 11 8 9 9 12 13 15 23 23 15 13 19 17 17 18 17 18 17 14 16 15 14 12 11 8 6 5 3 3 4 9 9 11
4 3 2 1 3 3 3 4 11 13 18 21 22 18 10 23 26 27 28 33 33 28 17 16 16 16 16 14 14 13 15 17 12 11 10 9 7 7 6 5 4 2 9
4 3 1 2 1 3 3 3 3 6 15 19 23 22 24 23 27 27 26 27 32 24 16 14 14 13 12 12 12 13 12 11 12 11 12 11 10 7 8 7 7 6 4
3 7 2 1 1 2 2 3 3 4 5 5 12 18 22 26 27 28 27 20 16 19 13 13 12 12 12 12 11 11 11 11 12 11 11 11 10 9 8 7 9 7 5
3 2 2 1 0 2 3 3 3 4 5 4 3 11 17 22 25 27 26 12 11 11 11 12 11 11 10 11 11 11 13 12 11 9 10 10 9 8 9 9 9 13 10
2 8 5 1 1 2 2 3 3 3 3 5 7 7 7 11 11 12 12 11 11 10 10 10 9 9 10 10 10 10 10 11 10 8 9 9 8 8 9 9 9 8 8
2 0 8 2 2 2 2 3 2 2 3 4 5 9 19 8 8 8 9 10 9 9 9 9 9 9 8 8 9 8 8 7 9 9 9 8 9 8 8 7 7 7 7
2 2 3 3 3 3 3 2 2 2 3 3 3 8 17 6 6 6 6 6 7 7 6 6 6 6 6 7 7 7 7 8 8 8 8 8 7 8 7 7 7 7 6
2 3 3 2 2 5 3 3 2 2 2 3 3 4 5 5 5 5 5 4 3 5 7 6 5 5 7 9 9 5 6 7 6 7 7 7 7 8 7 6 6 6 6
3 3 3 2 2 2 3 3 2 5 4 3 3 4 3 3 4 5 5 5 4 2 6 6 6 5 8 11 14 14 14 13 9 7 5 5 6 7 5 5 5 6 5
3 3 3 3 3 3 4 3 3 3 3 3 3 4 3 3 3 3 3 3 3 4 5 9 9 9 10 13 16 20 20 19 15 6 8 4 6 7 5 5 6 5 4
3 3 3 3 3 3 3 3 3 2 3 3 3 3 3 3 3 3 3 3 3 3 4 6 8 12 15 15 15 14 14 13 14 7 7 4 4 5 3 6 7 6 6
Wind_Direction
265 275 294 291 287 288 286 284 284 288 285 282 280 277 272 269 262 256 250 248 248 251 249 246 248 242 238 239 246 252 247 267 207 197 195 180 181 191 173 181 187 191 197
261 278 286 290 292 293 291 289 289 285 283 279 276 276 273 268 263 257 253 248 246 245 246 244 244 239 244 239 239 240 237 265 213 184 183 181 183 189 176 174 186 192 193
252 276 295 296 299 293 288 298 292 286 285 288 284 281 275 266 259 252 250 246 244 243 243 239 241 242 231 229 227 235 240 262 213 181 186 185 184 192 169 171 184 192 196
239 275 283 288 289 286 296 295 288 288 291 292 288 283 277 277 273 264 252 243 239 240 239 238 236 235 239 232 224 230 238 246 218 188 183 185 182 193 179 172 185 190 191
241 270 278 283 285 282 291 289 288 295 293 295 290 287 288 282 277 270 262 253 239 236 234 237 233 234 234 230 231 230 232 238 225 188 182 178 183 184 185 177 187 185 195
232 266 274 282 289 290 292 293 299 301 299 299 294 294 298 295 293 293 291 275 252 234 230 231 231 231 231 234 228 235 232 232 215 187 182 180 185 178 180 181 182 181 190
239 266 278 278 290 289 290 296 305 307 308 304 304 304 304 302 304 305 301 283 263 241 223 224 223 225 226 223 226 229 237 238 245 187 186 184 175 176 177 182 188 183 187
245 267 272 285 288 296 297 297 307 308 309 305 312 312 308 310 311 309 299 275 238 223 216 218 221 222 219 216 218 220 234 231 218 189 186 179 177 181 181 181 181 182 187
251 247 268 275 293 304 307 314 311 311 315 315 312 316 311 309 312 312 327 314 212 217 212 213 217 221 221 206 208 212 226 243 191 182 175 178 168 178 177 173 182 176 177
232 246 263 270 288 298 300 312 304 313 313 319 317 318 315 315 314 340 350 3 6 27 16 207 210 210 206 206 204 211 249 195 172 173 161 156 168 179 175 180 174 176 171
227 254 288 296 293 279 304 294 314 316 315 332 325 324 323 328 329 353 14 16 10 17 26 8 329 204 201 208 211 224 207 173 175 172 172 172 173 178 187 189 181 178 180
216 272 303 309 315 327 341 319 316 317 326 344 342 340 344 341 346 359 9 22 19 28 18 9 21 70 77 56 316 223 161 165 172 176 178 181 181 181 192 190 185 192 197
201 259 293 317 327 336 337 326 328 332 343 346 353 351 356 354 353 358 1 16 17 29 32 43 51 54 61 51 41 51 52 159 172 176 180 182 185 181 178 188 186 192 189
194 231 285 325 343 348 326 313 326 343 10 353 356 0 5 3 2 360 3 6 14 15 15 23 34 45 51 43 39 33 38 37 43 38 138 125 159 168 174 178 189 183 188
192 220 276 311 344 343 345 289 301 322 18 10 12 9 9 14 10 12 18 16 22 23 25 34 34 32 34 31 34 32 32 31 33 27 27 42 58 61 109 177 182 191 194
178 194 217 316 341 3 0 359 18 28 18 20 18 26 19 28 25 22 24 33 30 33 40 37 39 37 36 30 32 32 34 29 30 33 31 26 33 54 55 32 35 187 197
164 176 246 101 49 5 354 10 18 16 37 18 20 22 24 28 35 35 31 36 41 38 43 38 38 35 38 35 34 34 39 27 24 35 32 26 22 25 47 48 38 33 49
144 169 149 168 134 96 36 17 13 30 28 19 11 20 20 25 34 39 40 33 37 36 39 37 34 32 31 32 35 32 36 35 32 31 30 28 23 26 30 34 43 21 28
137 119 131 112 250 115 83 67 42 26 11 5 12 28 20 25 26 33 39 48 41 42 37 35 29 26 30 32 30 27 34 32 32 31 29 27 20 21 34 32 35 30 27
150 161 152 130 75 64 55 68 65 45 14 2 4 35 36 23 22 19 25 34 37 35 32 37 35 26 24 29 29 30 30 35 29 24 32 32 15 21 29 26 25 20 16
148 108 153 94 101 93 89 74 51 52 45 27 7 32 39 38 40 30 25 27 27 32 29 27 27 25 25 21 26 26 30 25 31 23 25 26 22 17 20 27 19 15 7
120 118 112 119 115 105 96 82 65 51 35 32 2 22 41 34 37 42 43 27 16 15 21 29 25 23 16 13 12 15 11 17 25 26 23 17 21 18 9 20 20 16 0
100 99 99 90 98 130 91 87 84 75 51 43 35 37 28 25 23 26 31 29 24 20 12 9 14 16 9 8 4 357 357 351 357 11 21 17 14 20 6 4 11 13 356
101 105 107 93 113 91 97 82 55 76 74 53 47 45 35 14 18 11 9 6 11 14 27 12 9 2 359 3 357 351 348 343 21 14 1 20 17 12 5 4 6 1 351
87 90 86 90 85 93 94 78 68 53 42 37 33 27 10 14 10 1 349 349 356 3 357 358 7 8 10 357 350 340 335 1 356 41 42 40 18 2 354 1 360 359 338
81 81 78 77 77 78 86 85 70 56 44 27 20 4 1 354 340 338 340 348 350 336 338 345 352 350 346 346 340 331 342 345 332 25 36 33 26 353 345 355 350 354 339